TimePST,TemperatureF,Dew PointF,Humidity,Sea Level PressureIn,VisibilityMPH,Wind Direction,Wind SpeedMPH,Gust SpeedMPH,PrecipitationIn,Events,Conditions,WindDirDegrees,DateUTC
12:15 AM,24.8,21.2,86,30.26,5.0,West,5.8,-,N/A,,Overcast,270,2012-12-31 08:15:00
12:35 AM,24.8,23.0,93,30.26,5.0,West,5.8,-,N/A,,Overcast,260,2012-12-31 08:35:00
12:55 AM,24.8,21.2,86,30.27,5.0,West,3.5,-,N/A,,Overcast,270,2012-12-31 08:55:00
1:15 AM,24.8,21.2,86,30.27,7.0,West,3.5,-,N/A,,Overcast,260,2012-12-31 09:15:00
1:35 AM,24.8,23.0,93,30.27,9.0,West,6.9,-,N/A,,Overcast,270,2012-12-31 09:35:00
1:55 AM,24.8,21.2,86,30.27,10.0,West,4.6,-,N/A,,Overcast,260,2012-12-31 09:55:00
2:15 AM,24.8,21.2,86,30.27,10.0,West,4.6,-,N/A,,Overcast,260,2012-12-31 10:15:00
2:35 AM,24.8,21.2,86,30.27,10.0,West,3.5,-,N/A,,Overcast,260,2012-12-31 10:35:00
2:55 AM,24.8,21.2,86,30.27,10.0,Calm,Calm,-,N/A,,Overcast,0,2012-12-31 10:55:00
3:15 AM,24.8,21.2,86,30.27,10.0,WSW,3.5,-,N/A,,Overcast,250,2012-12-31 11:15:00
3:35 AM,24.8,21.2,86,30.27,10.0,WSW,5.8,-,N/A,,Overcast,250,2012-12-31 11:35:00
3:55 AM,24.8,21.2,86,30.27,10.0,WSW,4.6,-,N/A,,Overcast,250,2012-12-31 11:55:00
4:15 AM,24.8,21.2,86,30.27,10.0,WSW,5.8,-,N/A,,Overcast,240,2012-12-31 12:15:00
4:35 AM,24.8,21.2,86,30.27,10.0,WSW,5.8,-,N/A,,Overcast,240,2012-12-31 12:35:00
4:55 AM,24.8,21.2,86,30.27,10.0,WSW,5.8,-,N/A,,Overcast,250,2012-12-31 12:55:00
5:15 AM,24.8,21.2,86,30.27,10.0,WSW,6.9,-,N/A,,Overcast,250,2012-12-31 13:15:00
5:35 AM,24.8,21.2,86,30.26,10.0,WSW,4.6,-,N/A,,Overcast,250,2012-12-31 13:35:00
5:55 AM,24.8,21.2,86,30.26,10.0,WSW,4.6,-,N/A,,Overcast,250,2012-12-31 13:55:00
6:15 AM,24.8,21.2,86,30.26,10.0,WSW,4.6,-,N/A,,Overcast,250,2012-12-31 14:15:00
6:35 AM,24.8,21.2,86,30.27,10.0,West,4.6,-,N/A,,Overcast,260,2012-12-31 14:35:00
6:55 AM,24.8,21.2,86,30.27,10.0,West,3.5,-,N/A,,Overcast,260,2012-12-31 14:55:00
7:15 AM,24.8,21.2,86,30.27,7.0,West,5.8,-,N/A,,Overcast,270,2012-12-31 15:15:00
7:35 AM,24.8,21.2,86,30.27,6.0,West,5.8,-,N/A,,Overcast,280,2012-12-31 15:35:00
7:55 AM,24.8,21.2,86,30.27,5.0,West,3.5,-,N/A,,Overcast,270,2012-12-31 15:55:00
8:15 AM,24.8,21.2,86,30.27,5.0,West,3.5,-,N/A,,Overcast,260,2012-12-31 16:15:00
8:35 AM,24.8,21.2,86,30.27,5.0,WSW,4.6,-,N/A,,Overcast,250,2012-12-31 16:35:00
8:55 AM,24.8,21.2,86,30.28,5.0,Calm,Calm,-,N/A,,Overcast,0,2012-12-31 16:55:00
9:15 AM,26.6,21.2,80,30.28,6.0,Calm,Calm,-,N/A,,Overcast,0,2012-12-31 17:15:00
9:35 AM,24.8,21.2,86,30.29,6.0,Calm,Calm,-,N/A,,Overcast,0,2012-12-31 17:35:00
9:55 AM,26.6,21.2,80,30.29,7.0,Calm,Calm,-,N/A,,Overcast,0,2012-12-31 17:55:00
10:15 AM,26.6,21.2,80,30.29,7.0,Calm,Calm,-,N/A,,Overcast,0,2012-12-31 18:15:00
10:35 AM,26.6,21.2,80,30.29,8.0,Calm,Calm,-,N/A,,Overcast,0,2012-12-31 18:35:00
10:55 AM,26.6,23.0,86,30.29,10.0,Calm,Calm,-,N/A,,Overcast,0,2012-12-31 18:55:00
11:15 AM,26.6,21.2,80,30.29,9.0,Calm,Calm,-,N/A,,Overcast,0,2012-12-31 19:15:00
11:35 AM,26.6,21.2,80,30.29,9.0,Calm,Calm,-,N/A,,Overcast,0,2012-12-31 19:35:00
11:55 AM,26.6,21.2,80,30.29,10.0,Calm,Calm,-,N/A,,Overcast,0,2012-12-31 19:55:00
12:15 PM,26.6,21.2,80,30.28,10.0,Calm,Calm,-,N/A,,Overcast,0,2012-12-31 20:15:00
12:35 PM,26.6,23.0,86,30.28,9.0,Calm,Calm,-,N/A,,Overcast,0,2012-12-31 20:35:00
12:55 PM,26.6,23.0,86,30.28,8.0,Calm,Calm,-,N/A,,Overcast,0,2012-12-31 20:55:00
1:15 PM,26.6,21.2,80,30.28,8.0,ENE,5.8,-,N/A,,Overcast,60,2012-12-31 21:15:00
1:35 PM,26.6,21.2,80,30.28,8.0,Calm,Calm,-,N/A,,Overcast,0,2012-12-31 21:35:00
1:55 PM,26.6,21.2,80,30.28,9.0,Calm,Calm,-,N/A,,Overcast,0,2012-12-31 21:55:00
2:35 PM,26.6,21.2,80,30.29,9.0,Calm,Calm,-,N/A,,Overcast,0,2012-12-31 22:35:00
2:55 PM,26.6,21.2,80,30.29,9.0,Calm,Calm,-,N/A,,Overcast,0,2012-12-31 22:55:00
3:15 PM,26.6,21.2,80,30.30,10.0,NNE,3.5,-,N/A,,Overcast,30,2012-12-31 23:15:00
3:35 PM,26.6,21.2,80,30.30,10.0,NE,4.6,-,N/A,,Overcast,40,2012-12-31 23:35:00
3:55 PM,26.6,21.2,80,30.31,10.0,NNE,3.5,-,N/A,,Overcast,30,2012-12-31 23:55:00
4:15 PM,26.6,21.2,80,30.31,10.0,NNE,4.6,-,N/A,,Overcast,30,2013-01-01 00:15:00
4:35 PM,26.6,21.2,80,30.31,10.0,NNE,4.6,-,N/A,,Overcast,30,2013-01-01 00:35:00
4:55 PM,26.6,21.2,80,30.32,10.0,NE,4.6,-,N/A,,Overcast,40,2013-01-01 00:55:00
5:15 PM,23.0,17.6,80,30.31,10.0,NE,5.8,-,N/A,,Mostly Cloudy,50,2013-01-01 01:15:00
5:35 PM,21.2,15.8,80,30.31,10.0,NE,4.6,-,N/A,,Clear,50,2013-01-01 01:35:00
5:55 PM,19.4,15.8,86,30.31,10.0,Calm,Calm,-,N/A,,Clear,0,2013-01-01 01:55:00
6:15 PM,15.8,10.4,79,30.31,8.0,Calm,Calm,-,N/A,,Clear,0,2013-01-01 02:15:00
6:35 PM,15.8,12.2,86,30.32,5.0,NE,3.5,-,N/A,,Clear,40,2013-01-01 02:35:00
6:55 PM,14.0,10.4,86,30.32,3.0,NNE,3.5,-,N/A,,Clear,20,2013-01-01 02:55:00
7:15 PM,10.4,8.6,92,30.32,0.2,WNW,3.5,-,N/A,,Overcast,300,2013-01-01 03:15:00
7:35 PM,14.0,10.4,86,30.33,0.2,Calm,Calm,-,N/A,,Overcast,0,2013-01-01 03:35:00
7:55 PM,15.8,15.8,100,30.33,0.5,Calm,Calm,-,N/A,,Overcast,0,2013-01-01 03:55:00
8:15 PM,15.8,10.4,79,30.34,0.2,Calm,Calm,-,N/A,,Overcast,0,2013-01-01 04:15:00
8:35 PM,15.8,15.8,100,30.35,0.5,Calm,Calm,-,N/A,,Mostly Cloudy,0,2013-01-01 04:35:00
8:55 PM,15.8,14.0,93,30.35,0.5,Calm,Calm,-,N/A,,Overcast,0,2013-01-01 04:55:00
9:15 PM,15.8,12.2,86,30.36,0.2,Calm,Calm,-,N/A,,Overcast,0,2013-01-01 05:15:00
9:35 PM,12.2,6.8,79,30.37,0.2,Calm,Calm,-,N/A,,Overcast,0,2013-01-01 05:35:00
9:55 PM,12.2,8.6,85,30.37,0.2,Calm,Calm,-,N/A,,Overcast,0,2013-01-01 05:55:00
10:15 PM,14.0,12.2,93,30.38,0.2,Calm,Calm,-,N/A,,Overcast,0,2013-01-01 06:15:00
10:35 PM,12.2,8.6,85,30.39,0.8,Calm,Calm,-,N/A,,Overcast,0,2013-01-01 06:35:00
10:55 PM,12.2,8.6,85,30.39,0.5,Calm,Calm,-,N/A,,Overcast,0,2013-01-01 06:55:00
11:15 PM,12.2,10.4,92,30.40,0.2,Calm,Calm,-,N/A,,Overcast,0,2013-01-01 07:15:00
11:35 PM,15.8,14.0,93,30.39,0.2,Calm,Calm,-,N/A,,Overcast,0,2013-01-01 07:35:00